logo
Search for airport 
image banner adimage banner adimage banner ad
image banner ad

ED3170 - Matzerath

Located in , Germany

ICAO - , IATA -

Data provided by Airmate  

General information

Coordinates: N51°4'40" E6°16'37"
Elevation is 300 feet MSL.
 
View others Airports in North Rhine-Westphalia

Operational data

Special qualification required
Current time UTC:
Current local time:
Weather at : ETNG - Geilenkirchen ( 21 km )
METAR: ETNG 251550Z 23004KT CAVOK 25/13 Q1012
TAF: TAF ETNG 251400Z 2515/2606 22005KT CAVOK PROB30 TEMPO 2518/2601 -RA -SHRA SCT070CB BECMG 2522/2601 -RA PROB30 TEMPO 2601/2606 4000 DZRA BKN012
View NOTAMs / SUP AIP / TFR affecting this airport [VIEW]
Communications frequencies: [VIEW]

Runways:

Airport contact information

Address: Germany

Satellite view of ED3170